Time,TemperatureF,DewpointF,PressureIn,WindDirection,WindDirectionDegrees,WindSpeedMPH,WindSpeedGustMPH,Humidity,HourlyPrecipIn,Conditions,Clouds,dailyrainin,SoftwareType,DateUTC
2013-05-19 00:01:00,75.7,-99.9,30.12,WNW,283,2.0,-999.0,0,-99.99,,,0.00,weatherlink.com 1.10,2013-05-19 04:01:00,
2013-05-19 00:16:00,75.6,-99.9,30.13,WNW,291,0.0,-999.0,0,-99.99,,,0.00,weatherlink.com 1.10,2013-05-19 04:16:00,
2013-05-19 00:31:00,75.6,-99.9,30.13,NW,305,0.0,-999.0,0,-99.99,,,0.00,weatherlink.com 1.10,2013-05-19 04:31:00,
2013-05-19 00:46:00,75.4,-99.9,30.12,WNW,285,0.0,-999.0,0,-99.99,,,0.00,weatherlink.com 1.10,2013-05-19 04:46:00,
2013-05-19 01:02:00,75.3,-99.9,30.12,WNW,294,0.0,-999.0,0,-99.99,,,0.00,weatherlink.com 1.10,2013-05-19 05:02:00,
2013-05-19 01:17:00,75.3,-99.9,30.11,WNW,299,0.0,-999.0,0,-99.99,,,0.00,weatherlink.com 1.10,2013-05-19 05:17:00,
2013-05-19 01:32:00,75.3,-99.9,30.12,WNW,289,0.0,-999.0,0,-99.99,,,0.00,weatherlink.com 1.10,2013-05-19 05:32:00,
2013-05-19 01:47:00,75.4,-99.9,30.11,WNW,290,2.0,-999.0,0,-99.99,,,0.00,weatherlink.com 1.10,2013-05-19 05:47:00,
2013-05-19 02:02:00,75.3,-99.9,30.11,West,267,5.0,-999.0,0,-99.99,,,0.00,weatherlink.com 1.10,2013-05-19 06:02:00,
2013-05-19 02:17:00,75.3,-99.9,30.11,WNW,294,2.0,-999.0,0,-99.99,,,0.00,weatherlink.com 1.10,2013-05-19 06:17:00,
2013-05-19 02:32:00,75.3,-99.9,30.11,WNW,302,3.0,-999.0,0,-99.99,,,0.00,weatherlink.com 1.10,2013-05-19 06:32:00,
2013-05-19 02:47:00,75.2,-99.9,30.10,NW,315,2.0,-999.0,0,-99.99,,,0.00,weatherlink.com 1.10,2013-05-19 06:47:00,
2013-05-19 03:02:00,75.1,-99.9,30.09,WNW,293,0.0,-999.0,0,-99.99,,,0.00,weatherlink.com 1.10,2013-05-19 07:02:00,
2013-05-19 03:17:00,75.1,-99.9,30.09,NNW,335,0.0,-999.0,0,-99.99,,,0.00,weatherlink.com 1.10,2013-05-19 07:17:00,
2013-05-19 03:32:00,75.0,-99.9,30.09,NNW,335,0.0,-999.0,0,-99.99,,,0.00,weatherlink.com 1.10,2013-05-19 07:32:00,
2013-05-19 03:47:00,74.9,-99.9,30.09,NNW,335,0.0,-999.0,0,-99.99,,,0.00,weatherlink.com 1.10,2013-05-19 07:47:00,
2013-05-19 04:02:00,74.8,-99.9,30.09,NNW,335,0.0,-999.0,0,-99.99,,,0.00,weatherlink.com 1.10,2013-05-19 08:02:00,
2013-05-19 04:18:00,74.5,-99.9,30.09,NNW,335,0.0,-999.0,0,-99.99,,,0.00,weatherlink.com 1.10,2013-05-19 08:18:00,
2013-05-19 04:33:00,74.2,-99.9,30.09,NNW,335,0.0,-999.0,0,-99.99,,,0.00,weatherlink.com 1.10,2013-05-19 08:33:00,
2013-05-19 04:48:00,73.9,-99.9,30.10,NNW,335,0.0,-999.0,0,-99.99,,,0.00,weatherlink.com 1.10,2013-05-19 08:48:00,
2013-05-19 05:03:00,73.7,-99.9,30.11,NNW,335,0.0,-999.0,0,-99.99,,,0.00,weatherlink.com 1.10,2013-05-19 09:03:00,
2013-05-19 05:18:00,73.7,-99.9,30.10,NNE,28,0.0,-999.0,0,-99.99,,,0.00,weatherlink.com 1.10,2013-05-19 09:18:00,
2013-05-19 05:33:00,73.7,-99.9,30.11,NNE,20,0.0,-999.0,0,-99.99,,,0.00,weatherlink.com 1.10,2013-05-19 09:33:00,
2013-05-19 05:48:00,72.7,-99.9,30.12,WNW,294,4.0,-999.0,0,-99.99,,,0.00,weatherlink.com 1.10,2013-05-19 09:48:00,
2013-05-19 06:03:00,72.0,-99.9,30.12,NW,306,8.0,-999.0,0,-99.99,,,0.00,weatherlink.com 1.10,2013-05-19 10:03:00,
2013-05-19 06:18:00,71.5,-99.9,30.12,WNW,301,5.0,-999.0,0,-99.99,,,0.00,weatherlink.com 1.10,2013-05-19 10:18:00,
2013-05-19 06:33:00,70.2,-99.9,30.13,WSW,242,3.0,-999.0,0,-99.99,,,0.00,weatherlink.com 1.10,2013-05-19 10:33:00,
2013-05-19 06:48:00,70.2,-99.9,30.13,WSW,238,5.0,-999.0,0,-99.99,,,0.00,weatherlink.com 1.10,2013-05-19 10:48:00,
2013-05-19 07:03:00,70.3,-99.9,30.14,West,281,6.0,-999.0,0,-99.99,,,0.00,weatherlink.com 1.10,2013-05-19 11:03:00,
2013-05-19 07:18:00,70.5,-99.9,30.15,WSW,248,7.0,-999.0,0,-99.99,,,0.00,weatherlink.com 1.10,2013-05-19 11:18:00,
2013-05-19 07:33:00,71.0,-99.9,30.15,SW,225,6.0,-999.0,0,-99.99,,,0.00,weatherlink.com 1.10,2013-05-19 11:33:00,
2013-05-19 07:49:00,71.8,-99.9,30.15,West,263,1.0,-999.0,0,-99.99,,,0.00,weatherlink.com 1.10,2013-05-19 11:49:00,
2013-05-19 08:04:00,71.7,-99.9,30.15,SW,232,4.0,-999.0,0,-99.99,,,0.00,weatherlink.com 1.10,2013-05-19 12:04:00,
2013-05-19 08:19:00,71.8,-99.9,30.15,WSW,250,5.0,-999.0,0,-99.99,,,0.00,weatherlink.com 1.10,2013-05-19 12:19:00,
2013-05-19 08:34:00,72.7,-99.9,30.16,West,263,1.0,-999.0,0,-99.99,,,0.00,weatherlink.com 1.10,2013-05-19 12:34:00,
2013-05-19 08:49:00,75.1,-99.9,30.15,West,278,4.0,-999.0,0,-99.99,,,0.00,weatherlink.com 1.10,2013-05-19 12:49:00,
2013-05-19 09:04:00,75.5,-99.9,30.15,WSW,248,3.0,-999.0,0,-99.99,,,0.00,weatherlink.com 1.10,2013-05-19 13:04:00,
2013-05-19 09:19:00,75.2,-99.9,30.15,West,267,0.0,-999.0,0,-99.99,,,0.00,weatherlink.com 1.10,2013-05-19 13:19:00,
2013-05-19 09:34:00,75.2,-99.9,30.15,WNW,296,5.0,-999.0,0,-99.99,,,0.00,weatherlink.com 1.10,2013-05-19 13:34:00,
2013-05-19 09:49:00,75.8,-99.9,30.15,West,264,5.0,-999.0,0,-99.99,,,0.00,weatherlink.com 1.10,2013-05-19 13:49:00,
2013-05-19 10:04:00,75.5,-99.9,30.15,WNW,286,7.0,-999.0,0,-99.99,,,0.00,weatherlink.com 1.10,2013-05-19 14:04:00,
2013-05-19 10:19:00,75.8,-99.9,30.15,WNW,288,7.0,-999.0,0,-99.99,,,0.00,weatherlink.com 1.10,2013-05-19 14:19:00,
2013-05-19 10:34:00,75.3,-99.9,30.15,West,263,8.0,-999.0,0,-99.99,,,0.00,weatherlink.com 1.10,2013-05-19 14:34:00,
2013-05-19 10:49:00,75.5,-99.9,30.15,West,277,6.0,-999.0,0,-99.99,,,0.00,weatherlink.com 1.10,2013-05-19 14:49:00,
2013-05-19 11:04:00,76.0,-99.9,30.16,West,281,1.0,-999.0,0,-99.99,,,0.00,weatherlink.com 1.10,2013-05-19 15:04:00,
2013-05-19 11:20:00,76.0,-99.9,30.15,WSW,240,7.0,-999.0,0,-99.99,,,0.00,weatherlink.com 1.10,2013-05-19 15:20:00,
2013-05-19 11:35:00,76.4,-99.9,30.16,WSW,242,6.0,-999.0,0,-99.99,,,0.00,weatherlink.com 1.10,2013-05-19 15:35:00,
2013-05-19 11:50:00,76.7,-99.9,30.15,West,273,10.0,-999.0,0,-99.99,,,0.00,weatherlink.com 1.10,2013-05-19 15:50:00,
2013-05-19 12:05:00,77.4,-99.9,30.15,WSW,248,10.0,-999.0,0,-99.99,,,0.00,weatherlink.com 1.10,2013-05-19 16:05:00,
2013-05-19 12:20:00,77.5,-99.9,30.14,West,281,8.0,-999.0,0,-99.99,,,0.00,weatherlink.com 1.10,2013-05-19 16:20:00,
2013-05-19 12:35:00,77.0,-99.9,30.14,NW,310,2.0,-999.0,0,-99.99,,,0.00,weatherlink.com 1.10,2013-05-19 16:35:00,
2013-05-19 12:50:00,77.4,-99.9,30.13,SW,235,10.0,-999.0,0,-99.99,,,0.00,weatherlink.com 1.10,2013-05-19 16:50:00,
2013-05-19 13:05:00,77.3,-99.9,30.12,WNW,286,1.0,-999.0,0,-99.99,,,0.00,weatherlink.com 1.10,2013-05-19 17:05:00,
2013-05-19 13:20:00,77.3,-99.9,30.12,WSW,252,9.0,-999.0,0,-99.99,,,0.00,weatherlink.com 1.10,2013-05-19 17:20:00,
2013-05-19 13:35:00,78.3,-99.9,30.12,West,275,5.0,-999.0,0,-99.99,,,0.00,weatherlink.com 1.10,2013-05-19 17:35:00,
2013-05-19 13:50:00,78.4,-99.9,30.11,WNW,302,4.0,-999.0,0,-99.99,,,0.00,weatherlink.com 1.10,2013-05-19 17:50:00,
2013-05-19 14:05:00,77.6,-99.9,30.11,WNW,290,5.0,-999.0,0,-99.99,,,0.00,weatherlink.com 1.10,2013-05-19 18:05:00,
2013-05-19 14:20:00,77.8,-99.9,30.11,NW,309,4.0,-999.0,0,-99.99,,,0.00,weatherlink.com 1.10,2013-05-19 18:20:00,
2013-05-19 14:35:00,78.2,-99.9,30.11,NW,323,5.0,-999.0,0,-99.99,,,0.00,weatherlink.com 1.10,2013-05-19 18:35:00,
2013-05-19 14:51:00,77.8,-99.9,30.11,WNW,300,0.0,-999.0,0,-99.99,,,0.00,weatherlink.com 1.10,2013-05-19 18:51:00,
2013-05-19 15:06:00,77.7,-99.9,30.11,West,259,2.0,-999.0,0,-99.99,,,0.00,weatherlink.com 1.10,2013-05-19 19:06:00,
2013-05-19 15:21:00,77.5,-99.9,30.10,NW,320,10.0,-999.0,0,-99.99,,,0.00,weatherlink.com 1.10,2013-05-19 19:21:00,
2013-05-19 15:36:00,77.8,-99.9,30.09,WNW,290,2.0,-999.0,0,-99.99,,,0.00,weatherlink.com 1.10,2013-05-19 19:36:00,
2013-05-19 15:51:00,77.5,-99.9,30.09,NW,320,0.0,-999.0,0,-99.99,,,0.00,weatherlink.com 1.10,2013-05-19 19:51:00,
2013-05-19 16:06:00,77.5,-99.9,30.09,WNW,289,0.0,-999.0,0,-99.99,,,0.00,weatherlink.com 1.10,2013-05-19 20:06:00,
2013-05-19 16:21:00,77.6,-99.9,30.09,West,273,5.0,-999.0,0,-99.99,,,0.00,weatherlink.com 1.10,2013-05-19 20:21:00,
2013-05-19 16:36:00,77.3,-99.9,30.09,West,277,5.0,-999.0,0,-99.99,,,0.00,weatherlink.com 1.10,2013-05-19 20:36:00,
2013-05-19 16:51:00,77.5,-99.9,30.09,NW,324,0.0,-999.0,0,-99.99,,,0.00,weatherlink.com 1.10,2013-05-19 20:51:00,
2013-05-19 17:06:00,76.5,-99.9,30.09,NW,314,4.0,-999.0,0,-99.99,,,0.00,weatherlink.com 1.10,2013-05-19 21:06:00,
2013-05-19 17:21:00,76.7,-99.9,30.09,NW,307,0.0,-999.0,0,-99.99,,,0.00,weatherlink.com 1.10,2013-05-19 21:21:00,
2013-05-19 17:36:00,76.4,-99.9,30.10,West,272,1.0,-999.0,0,-99.99,,,0.00,weatherlink.com 1.10,2013-05-19 21:36:00,
2013-05-19 17:51:00,76.8,-99.9,30.10,NW,323,0.0,-999.0,0,-99.99,,,0.00,weatherlink.com 1.10,2013-05-19 21:51:00,
2013-05-19 18:07:00,77.3,-99.9,30.09,WNW,290,0.0,-999.0,0,-99.99,,,0.00,weatherlink.com 1.10,2013-05-19 22:07:00,
2013-05-19 18:22:00,77.1,-99.9,30.09,WNW,284,3.0,-999.0,0,-99.99,,,0.00,weatherlink.com 1.10,2013-05-19 22:22:00,
2013-05-19 18:37:00,76.9,-99.9,30.09,SW,236,0.0,-999.0,0,-99.99,,,0.00,weatherlink.com 1.10,2013-05-19 22:37:00,
2013-05-19 18:52:00,76.6,-99.9,30.09,WNW,282,2.0,-999.0,0,-99.99,,,0.00,weatherlink.com 1.10,2013-05-19 22:52:00,
2013-05-19 19:07:00,76.1,-99.9,30.09,NW,304,4.0,-999.0,0,-99.99,,,0.00,weatherlink.com 1.10,2013-05-19 23:07:00,
2013-05-19 19:22:00,76.1,-99.9,30.09,North,351,0.0,-999.0,0,-99.99,,,0.00,weatherlink.com 1.10,2013-05-19 23:22:00,
2013-05-19 19:37:00,76.0,-99.9,30.09,West,276,5.0,-999.0,0,-99.99,,,0.00,weatherlink.com 1.10,2013-05-19 23:37:00,
2013-05-19 19:52:00,76.0,-99.9,30.09,WSW,256,4.0,-999.0,0,-99.99,,,0.00,weatherlink.com 1.10,2013-05-19 23:52:00,
2013-05-19 20:07:00,75.7,-99.9,30.09,WNW,293,4.0,-999.0,0,-99.99,,,0.00,weatherlink.com 1.10,2013-05-20 00:07:00,
2013-05-19 20:22:00,75.5,-99.9,30.09,West,266,2.0,-999.0,0,-99.99,,,0.00,weatherlink.com 1.10,2013-05-20 00:22:00,
2013-05-19 20:37:00,75.4,-99.9,30.09,West,279,4.0,-999.0,0,-99.99,,,0.00,weatherlink.com 1.10,2013-05-20 00:37:00,
2013-05-19 20:52:00,75.2,-99.9,30.09,NW,319,4.0,-999.0,0,-99.99,,,0.00,weatherlink.com 1.10,2013-05-20 00:52:00,
2013-05-19 21:07:00,75.3,-99.9,30.10,WNW,290,0.0,-999.0,0,-99.99,,,0.00,weatherlink.com 1.10,2013-05-20 01:07:00,
2013-05-19 21:22:00,75.3,-99.9,30.11,NW,320,0.0,-999.0,0,-99.99,,,0.00,weatherlink.com 1.10,2013-05-20 01:22:00,
2013-05-19 21:38:00,75.3,-99.9,30.11,West,281,0.0,-999.0,0,-99.99,,,0.00,weatherlink.com 1.10,2013-05-20 01:38:00,
2013-05-19 21:53:00,75.2,-99.9,30.11,WNW,288,3.0,-999.0,0,-99.99,,,0.00,weatherlink.com 1.10,2013-05-20 01:53:00,
2013-05-19 22:08:00,75.3,-99.9,30.11,North,360,0.0,-999.0,0,-99.99,,,0.00,weatherlink.com 1.10,2013-05-20 02:08:00,
2013-05-19 22:23:00,75.3,-99.9,30.12,NW,309,0.0,-999.0,0,-99.99,,,0.00,weatherlink.com 1.10,2013-05-20 02:23:00,
2013-05-19 22:38:00,75.3,-99.9,30.12,WNW,298,4.0,-999.0,0,-99.99,,,0.00,weatherlink.com 1.10,2013-05-20 02:38:00,
2013-05-19 22:53:00,75.2,-99.9,30.11,West,277,3.0,-999.0,0,-99.99,,,0.00,weatherlink.com 1.10,2013-05-20 02:53:00,
2013-05-19 23:08:00,75.1,-99.9,30.12,WNW,284,0.0,-999.0,0,-99.99,,,0.00,weatherlink.com 1.10,2013-05-20 03:08:00,
2013-05-19 23:23:00,74.9,-99.9,30.11,WNW,286,0.0,-999.0,0,-99.99,,,0.00,weatherlink.com 1.10,2013-05-20 03:23:00,
2013-05-19 23:38:00,74.6,-99.9,30.11,WNW,286,0.0,-999.0,0,-99.99,,,0.00,weatherlink.com 1.10,2013-05-20 03:38:00,
2013-05-19 23:53:00,74.5,-99.9,30.11,NNE,26,2.0,-999.0,0,-99.99,,,0.00,weatherlink.com 1.10,2013-05-20 03:53:00,